Simultaneous Nadir Overpasses (SNOs) Predictions

Prediction of SNOs between GOES-16 and METOP-C Satellite Orbit:

Table of predicted SNOs for the next 14.0 days since TLE Epoch: 4/4/2020
Index Date Time (GOES-16) GOES-16 Lat,Lon METOP-C Lat,Lon Distance(km) Time Diff (sec)
1 04/05/2020 02:20:55 -0.00, -75.15 0.54, -72.77 271.17 80
2 04/06/2020 14:39:47 0.00, -75.19 0.48, -77.33 244.62 80
3 04/07/2020 14:21:48 0.01, -75.20 -0.61, -72.33 325.72 80
4 04/09/2020 02:40:49 -0.01, -75.19 -0.39, -76.94 198.45 80
5 04/10/2020 02:17:29 -0.01, -75.21 0.70, -71.94 372.13 80
6 04/11/2020 14:36:22 0.01, -75.25 0.31, -76.50 142.60 80
7 04/12/2020 14:15:43 0.02, -75.27 -0.84, -71.51 428.27 80
8 04/14/2020 02:37:25 0.00, -75.27 -0.16, -76.12 95.61 80
9 04/15/2020 02:14:05 0.01, -75.29 0.92, -71.12 475.27 80
10 04/16/2020 14:35:37 -0.01, -75.35 0.07, -75.68 38.46 80




NCC Satellite Simultaneous Nadir Overpasses (SNOs) Prediction Service
